Volver al catálogo

CZ-6A DEB

ActivoSSO
NORAD 54506·DEBRIS·🇨🇳 China

Lanzado Nov 11, 2022 desde Taiyuan Satellite Launch Center

Loading…

Próximos Pases (próximas 24 horas)

TLE

ActualizadoSource: Space-Track

Época: Sep 14, 2026, 00:48 UTC

1 54506U 22151JJ  26257.03362041  .00001395  00000-0  62318-3 0  9993
2 54506  98.8774 287.8622 0098816 327.6604  31.8540 14.21790941198298

Sigue CZ-6A DEB en tiempo real con AllMySat

Download on the App Store